Wind_Speed
39 37 37 36 32 22 23 23 17 12 7 9 11 7 6 3 4 5 9 14 19 22 22 23 22 20 22 20 15 16 13 12 9 6 5 7 11 13 11 12 12 15 20 21
44 43 43 39 37 31 26 27 24 17 14 6 7 13 9 6 6 10 13 19 20 18 21 23 24 24 23 20 16 16 11 9 6 3 3 7 10 10 10 9 11 15 18 18
49 49 43 41 40 37 31 32 28 24 18 17 12 12 10 7 9 14 12 11 14 17 20 23 24 24 22 20 16 14 11 6 3 1 4 7 10 11 11 11 11 14 17 19
46 51 50 46 43 43 37 41 32 29 24 21 16 16 12 9 13 15 10 12 14 17 19 19 20 21 20 17 13 10 8 6 3 4 5 9 11 12 13 13 14 16 17 20
24 34 50 51 51 43 54 42 38 33 29 22 14 21 17 13 17 16 15 15 14 15 19 20 17 16 14 12 11 11 9 8 7 6 8 11 12 13 14 15 16 17 18 20
27 22 26 50 53 50 57 44 43 37 32 25 23 20 18 20 19 19 20 18 17 18 18 19 18 16 16 15 13 13 12 12 11 9 10 13 14 15 16 15 15 17 20 22
32 24 24 29 47 58 58 53 49 42 34 31 36 26 28 24 26 24 23 21 19 21 23 24 21 18 17 16 14 13 14 14 15 13 14 15 16 16 18 17 17 19 22 25
36 30 34 33 29 43 59 56 54 50 44 45 44 33 39 33 32 28 25 24 21 26 27 28 24 20 19 18 15 16 18 17 18 17 17 18 18 18 19 20 18 19 24 27
42 39 45 34 33 32 36 52 61 55 52 47 43 41 42 38 34 31 32 30 29 29 34 32 28 25 26 23 19 20 22 21 20 21 21 21 21 20 22 22 21 21 25 29
47 46 49 45 40 31 32 35 51 57 58 54 51 47 45 47 43 41 38 35 35 33 30 32 31 33 27 28 25 26 27 26 25 24 25 26 25 24 26 26 23 24 28 32
54 48 54 49 35 42 40 36 36 47 60 60 55 48 52 54 50 46 45 45 43 38 31 37 34 31 27 29 27 32 31 32 29 29 28 28 29 29 30 30 28 27 30 35
58 57 55 46 49 47 42 39 39 40 44 57 61 54 63 60 57 55 48 47 46 44 40 40 42 43 38 32 33 35 38 36 35 32 32 32 32 33 35 34 33 35 36 38
70 60 56 53 48 40 37 41 44 38 40 42 50 56 67 66 62 61 57 56 53 51 51 49 48 44 42 40 41 35 42 40 36 35 36 36 36 38 38 39 39 39 43 45
79 73 64 55 55 58 52 50 48 45 39 39 40 43 58 71 69 67 66 65 61 59 59 56 54 51 46 45 45 43 45 44 42 40 41 42 41 42 43 44 45 45 48 51
83 78 76 66 64 63 57 53 49 43 40 37 39 43 46 58 68 73 72 71 67 65 60 60 56 53 53 52 49 51 55 49 46 48 46 48 47 47 48 49 50 48 52 55
89 81 82 75 73 70 68 61 52 47 44 41 41 44 45 48 49 56 71 76 73 71 66 66 64 60 59 59 58 57 55 53 54 52 54 53 53 53 54 54 55 54 56 58
100 89 87 81 77 79 86 56 59 54 52 51 50 52 56 53 54 51 52 65 74 78 73 76 71 66 66 62 64 60 58 61 59 58 58 60 59 59 60 59 59 59 61 62
110 104 99 89 90 97 61 71 68 69 63 59 59 61 58 58 59 57 53 49 55 70 76 81 76 74 72 69 65 66 66 65 64 62 62 63 63 65 66 65 64 64 65 64
117 116 108 103 104 93 82 77 77 77 70 70 62 62 63 60 58 57 55 47 45 47 55 69 75 80 80 78 72 73 70 68 72 72 70 68 68 69 71 71 69 68 69 68
125 124 121 113 111 104 84 83 82 88 82 74 64 59 65 63 60 58 55 49 44 43 45 48 58 70 80 84 80 80 76 77 74 74 74 75 75 75 75 75 75 74 72 73
132 132 131 123 114 103 98 90 88 94 82 77 69 64 63 62 58 58 57 55 53 47 47 51 56 61 68 74 83 82 82 82 78 81 79 78 79 79 80 80 80 80 78 77
136 134 131 125 118 112 106 98 96 92 84 77 72 67 64 63 60 57 54 56 55 55 55 53 53 56 63 64 66 73 81 83 89 86 85 83 83 83 84 85 83 86 84 80
139 137 130 129 125 119 108 103 102 99 91 80 74 69 61 58 57 56 58 57 61 61 61 57 55 57 57 60 64 68 67 75 82 88 90 90 85 83 84 88 87 87 84 83
121 126 126 128 127 125 114 109 103 98 92 86 79 68 63 59 59 61 61 56 63 64 61 55 54 55 58 59 59 58 62 66 68 73 81 87 86 84 86 87 85 86 83 74
101 111 115 115 121 123 116 105 106 99 91 84 72 61 63 64 66 60 63 59 59 62 58 52 48 50 53 56 56 54 54 54 57 61 65 72 77 75 71 68 69 76 74 63
89 96 105 103 111 116 107 90 89 85 89 90 76 77 69 71 65 61 53 56 56 55 52 50 52 52 50 50 54 52 48 46 48 45 47 53 54 45 38 44 54 59 53 60
Wind_Direction
241 242 242 246 252 241 236 241 234 245 234 205 191 192 190 193 217 211 191 186 164 168 163 160 164 163 159 159 151 139 131 122 115 110 69 37 28 26 14 23 24 18 20 22
234 234 236 242 248 251 244 238 230 236 238 204 194 206 148 154 193 167 159 157 165 174 174 168 169 169 171 167 159 150 135 128 132 125 57 20 22 23 12 16 13 17 19 18
234 235 235 234 239 245 237 241 233 229 220 235 211 204 193 164 177 157 168 178 184 183 193 184 179 179 178 178 177 176 169 161 170 101 7 10 14 15 7 2 355 2 6 3
234 231 231 232 231 236 237 234 235 227 223 221 228 228 227 207 196 181 191 202 193 188 199 199 189 187 184 190 195 193 190 199 244 318 337 354 1 2 2 356 349 349 347 349
246 241 231 230 230 230 237 234 237 232 222 221 215 238 228 204 201 199 206 204 192 201 202 203 206 195 199 202 211 213 217 223 252 287 317 339 340 347 351 348 349 346 338 336
255 242 244 233 231 228 236 234 236 232 228 217 209 235 233 226 208 206 207 209 196 201 210 225 210 212 214 215 222 226 226 234 244 273 301 320 327 330 335 336 338 338 337 336
250 249 248 246 235 230 232 234 233 229 226 222 225 208 229 228 223 215 217 212 206 209 204 222 228 225 226 228 231 233 233 242 259 273 288 303 310 320 326 326 329 327 325 325
248 247 248 245 251 243 233 234 235 231 224 223 225 206 228 220 230 226 221 229 219 222 222 225 231 234 240 241 246 243 244 244 257 267 277 290 296 307 314 320 324 322 316 314
243 245 246 249 251 254 251 236 233 233 232 228 228 221 233 218 220 233 232 226 231 233 234 234 231 230 238 245 244 250 250 250 253 262 272 281 290 299 304 311 316 317 312 313
240 240 248 247 246 250 255 252 238 233 237 229 225 226 230 235 218 220 229 232 226 231 235 238 234 239 240 244 247 254 254 256 257 262 269 279 287 293 299 308 307 308 312 314
243 244 245 249 250 248 244 248 256 237 234 238 233 227 229 233 234 223 223 227 232 226 227 237 232 234 238 244 252 260 256 259 260 264 269 279 286 290 295 302 303 304 305 309
249 245 244 249 248 249 249 248 250 258 244 237 240 233 234 232 234 236 233 234 235 237 230 234 237 236 244 252 250 256 260 258 259 265 268 274 280 287 293 296 301 302 304 306
249 251 246 249 252 256 260 258 250 241 240 243 238 242 240 236 233 236 237 237 235 237 239 235 240 243 250 252 249 248 264 264 266 267 272 273 278 282 288 292 295 300 303 304
249 251 251 251 253 251 251 253 255 252 246 242 245 241 252 244 239 235 237 238 237 238 240 241 241 240 246 251 259 261 259 261 267 268 271 274 276 279 284 289 293 298 301 302
245 247 249 248 248 252 252 252 256 259 251 242 235 238 245 253 246 242 240 240 241 242 243 245 245 247 248 247 249 257 262 263 267 269 269 271 275 276 280 285 289 293 297 300
245 244 246 247 249 249 251 250 253 257 256 250 245 241 241 257 259 252 245 241 242 243 244 246 247 245 246 250 252 252 258 264 264 267 272 273 275 279 281 284 288 292 294 297
250 245 245 246 247 248 246 253 255 253 256 255 254 252 252 252 259 254 251 244 242 243 243 242 245 246 250 249 250 255 257 259 263 266 270 274 277 278 280 283 287 289 292 296
251 250 248 244 246 247 249 250 254 254 253 255 255 255 256 258 255 261 256 250 247 244 242 244 245 246 248 251 254 258 260 264 263 264 266 268 271 275 279 281 283 286 288 291
247 249 249 250 251 247 241 244 252 254 254 253 253 255 253 255 257 258 263 261 257 255 249 249 247 244 246 246 246 250 254 256 261 265 266 267 271 274 276 279 280 282 285 289
243 245 245 246 248 250 245 242 245 251 251 252 254 257 257 254 254 258 263 263 263 264 254 255 248 248 244 247 246 247 248 250 254 258 262 265 268 270 271 276 279 282 286 289
237 240 243 243 244 248 246 241 241 243 248 251 253 255 257 254 253 254 260 261 262 264 262 257 251 246 248 245 248 249 250 251 252 253 257 261 265 270 273 276 279 282 284 286
237 239 241 243 244 243 245 245 246 248 247 249 254 256 255 253 248 251 258 264 262 269 265 258 258 260 258 253 250 249 249 252 254 254 253 254 257 262 267 272 276 279 284 288
231 233 237 241 245 243 241 243 247 249 249 250 253 256 250 253 251 254 255 262 265 260 254 251 249 250 253 260 262 262 258 255 256 257 258 259 259 262 265 269 273 279 284 287
223 226 229 234 238 242 238 241 245 246 250 253 257 259 251 254 254 256 257 260 259 255 255 255 252 255 260 262 263 263 264 268 270 267 263 263 262 262 262 266 273 277 283 292
218 219 220 226 233 239 239 236 237 239 244 247 251 253 254 254 258 258 259 257 254 251 253 257 259 258 260 266 271 274 277 275 270 268 267 266 265 266 268 273 278 278 279 279
211 213 215 216 226 233 237 232 234 237 242 245 245 250 254 256 256 260 245 243 246 248 251 252 255 258 260 269 275 281 288 292 283 278 275 269 268 265 274 269 281 273 266 265
Height
10941 10944 10944 10947 10950 10957 10957 10957 10958 10959 10961 10958 10962 10961 10961 10958 10958 10959 10961 10965 10967 10972 10973 10976 10980 10982 10985 10987 10989 10990 10990 10991 10992 10993 10995 10995 10994 10992 10991 10989 10988 10986 10983 10981
10930 10930 10934 10940 10944 10948 10951 10953 10955 10956 10955 10958 10957 10961 10960 10959 10960 10960 10962 10964 10969 10973 10975 10975 10978 10981 10984 10986 10987 10989 10990 10991 10993 10994 10994 10994 10993 10993 10991 10990 10988 10986 10985 10984
10919 10921 10928 10932 10936 10939 10943 10944 10949 10952 10955 10956 10958 10959 10960 10960 10963 10962 10966 10967 10969 10972 10976 10975 10977 10979 10982 10984 10986 10988 10990 10991 10992 10992 10993 10993 10993 10991 10990 10989 10988 10986 10984 10982
10904 10910 10915 10921 10926 10929 10934 10931 10941 10946 10950 10952 10955 10958 10958 10960 10963 10963 10966 10968 10968 10970 10975 10977 10978 10979 10982 10984 10986 10987 10989 10990 10990 10990 10991 10991 10990 10989 10988 10987 10987 10985 10983 10979
10896 10899 10906 10910 10912 10922 10910 10927 10933 10939 10944 10950 10955 10955 10958 10958 10960 10962 10964 10965 10965 10969 10972 10975 10978 10979 10981 10983 10984 10985 10986 10987 10988 10989 10988 10988 10988 10988 10987 10985 10984 10983 10981 10979
10888 10894 10894 10898 10903 10909 10899 10919 10924 10932 10939 10947 10950 10950 10954 10954 10958 10959 10961 10963 10963 10966 10971 10976 10975 10977 10978 10980 10981 10982 10983 10984 10985 10986 10986 10986 10986 10986 10985 10985 10984 10981 10978 10976
10880 10887 10888 10889 10890 10894 10895 10906 10913 10923 10933 10939 10936 10945 10943 10948 10950 10952 10957 10959 10959 10964 10964 10972 10972 10972 10975 10977 10978 10979 10980 10981 10981 10982 10982 10983 10983 10983 10982 10981 10980 10978 10974 10972
10875 10878 10876 10878 10883 10882 10888 10896 10904 10910 10920 10924 10926 10941 10936 10943 10946 10949 10953 10954 10957 10960 10961 10965 10968 10970 10971 10973 10976 10977 10977 10978 10978 10978 10979 10979 10979 10980 10979 10978 10976 10974 10971 10969
10861 10867 10862 10872 10874 10877 10875 10886 10886 10900 10908 10916 10924 10929 10928 10938 10944 10943 10947 10951 10953 10952 10958 10959 10962 10964 10967 10967 10970 10973 10973 10974 10973 10973 10974 10975 10975 10975 10974 10974 10973 10970 10967 10965
10848 10853 10853 10859 10865 10871 10873 10870 10878 10891 10894 10903 10909 10918 10924 10923 10932 10938 10941 10943 10945 10947 10950 10953 10955 10956 10960 10962 10962 10968 10969 10969 10969 10968 10968 10969 10969 10969 10968 10969 10968 10966 10962 10959
10831 10840 10838 10846 10860 10859 10864 10867 10869 10873 10884 10892 10900 10915 10910 10910 10915 10922 10927 10931 10935 10942 10944 10946 10947 10951 10954 10954 10955 10960 10964 10963 10963 10962 10962 10962 10962 10962 10962 10962 10962 10961 10959 10955
10815 10820 10828 10842 10842 10848 10854 10860 10863 10868 10876 10879 10886 10900 10890 10898 10904 10910 10917 10921 10925 10929 10936 10938 10940 10943 10947 10947 10948 10950 10955 10956 10956 10955 10955 10955 10954 10955 10955 10955 10954 10953 10951 10949
10790 10810 10817 10825 10831 10840 10847 10850 10852 10859 10861 10872 10876 10878 10876 10884 10894 10899 10904 10908 10913 10918 10923 10927 10931 10934 10936 10937 10941 10941 10944 10946 10948 10947 10948 10947 10947 10947 10948 10947 10946 10944 10942 10940
10773 10788 10800 10816 10818 10815 10825 10833 10840 10847 10857 10863 10871 10868 10854 10867 10877 10884 10888 10893 10899 10903 10907 10916 10923 10928 10929 10927 10930 10931 10938 10938 10938 10938 10940 10939 10939 10939 10939 10937 10936 10936 10933 10929
10755 10773 10778 10794 10799 10799 10811 10819 10826 10838 10846 10854 10855 10856 10853 10848 10860 10867 10876 10882 10889 10896 10903 10904 10911 10916 10915 10915 10921 10923 10927 10929 10928 10927 10929 10929 10929 10929 10929 10927 10926 10927 10924 10920
10730 10751 10755 10774 10781 10785 10789 10801 10817 10824 10830 10839 10844 10846 10844 10839 10845 10852 10859 10867 10875 10881 10893 10894 10897 10906 10908 10907 10909 10914 10916 10915 10917 10919 10916 10918 10919 10918 10916 10917 10915 10915 10913 10912
10698 10723 10733 10752 10760 10761 10749 10804 10801 10808 10816 10822 10827 10830 10828 10834 10830 10836 10845 10852 10858 10863 10873 10876 10883 10891 10894 10899 10901 10902 10904 10904 10905 10907 10907 10905 10905 10905 10904 10905 10905 10904 10901 10899
10664 10683 10699 10728 10728 10719 10787 10772 10782 10785 10796 10805 10811 10815 10818 10821 10823 10823 10829 10839 10844 10845 10853 10855 10867 10874 10879 10885 10891 10890 10889 10890 10891 10893 10894 10892 10891 10891 10890 10891 10891 10890 10888 10889
10638 10641 10666 10687 10695 10722 10747 10760 10758 10761 10778 10780 10795 10802 10805 10807 10809 10814 10815 10825 10832 10833 10834 10837 10846 10852 10858 10864 10873 10874 10877 10878 10872 10875 10875 10877 10876 10876 10875 10874 10876 10876 10874 10874
10605 10611 10625 10652 10662 10686 10733 10738 10743 10733 10748 10763 10781 10788 10789 10794 10801 10802 10805 10810 10816 10821 10820 10822 10823 10823 10835 10839 10849 10852 10861 10859 10865 10861 10861 10859 10860 10860 10860 10858 10860 10861 10861 10860
10565 10570 10580 10613 10643 10675 10687 10703 10711 10703 10737 10750 10765 10771 10774 10781 10787 10791 10791 10795 10799 10803 10804 10803 10806 10808 10810 10821 10824 10832 10837 10841 10849 10845 10847 10846 10845 10847 10847 10845 10846 10844 10847 10849
10535 10554 10574 10595 10622 10646 10663 10680 10682 10698 10717 10736 10748 10756 10762 10764 10769 10778 10782 10780 10784 10787 10787 10789 10789 10792 10792 10799 10804 10810 10819 10825 10821 10824 10831 10833 10835 10835 10835 10833 10834 10830 10832 10837
10507 10530 10563 10575 10590 10615 10641 10661 10669 10682 10701 10728 10735 10743 10749 10753 10758 10763 10767 10767 10765 10767 10769 10773 10777 10780 10780 10781 10785 10791 10803 10806 10809 10807 10811 10814 10822 10826 10823 10816 10817 10816 10820 10822
10482 10512 10537 10548 10564 10577 10618 10641 10657 10671 10688 10706 10717 10729 10734 10739 10741 10745 10749 10753 10749 10746 10750 10762 10766 10768 10769 10771 10776 10782 10788 10791 10793 10794 10793 10791 10800 10806 10805 10806 10810 10808 10812 10820
10467 10491 10519 10534 10548 10559 10587 10620 10637 10658 10666 10685 10702 10710 10714 10721 10726 10728 10730 10734 10734 10736 10739 10744 10750 10753 10754 10756 10760 10764 10769 10773 10775 10775 10778 10776 10776 10783 10794 10800 10802 10800 10803 10814
10452 10476 10501 10523 10532 10545 10562 10598 10625 10643 10656 10670 10686 10692 10700 10703 10707 10712 10715 10718 10722 10726 10728 10731 10731 10731 10736 10742 10744 10748 10751 10750 10747 10751 10758 10762 10770 10781 10786 10785 10791 10783 10781 10791